Location: Krasnoyarskiy Pitomnik
(51.1333°N, 71.6167°E)
Time: 21:41:00
(UTC+00:00)

A-11 Canister half - Pass Details

Date: 22 April 2024
Orbit: 1525 x 1683 km, 47.3° (Epoch: 19 May)

Event Time Altitude Azimuth Distance (km) Brightness Sun altitude
Rises 23:53:46 0° 208° (SSW) 4,843 11.1 -2.3°
Reaches altitude 10° 23:57:13 10° 200° (SSW) 3,880 10.7 -1.8°
Maximum altitude 00:05:49 35° 140° (SE) 2,483 10.4 -0.5°
Drops below altitude 10° 00:14:33 10° 80° (E) 3,950 13.3 0.8°
Sets 00:18:05 0° 72° (ENE) 4,942 16.2 1.3°
